Peachtree City, GA

10:54 AM EDT on September 26, 2017 (GMT -0400)
Peachtree City-Falcon

Weather History for KFFC - June, 2013

Change the Weather History Date:

Saturday, June 22, 2013

  Actual Average Record
Temperature  
Mean Temperature 74 °F 77 °F  
Max Temperature 86 °F 89 °F 95 °F (2006)
Min Temperature 62 °F 66 °F 51 °F (2003)
Degree Days  
Heating Degree Days 0 0  
Month to date heating degree days 0 0  
Since 1 June heating degree days 0 0  
Since 1 July heating degree days 242 2950  
Cooling Degree Days 9 12  
Month to date cooling degree days 250 225  
Year to date cooling degree days 396 415  
Since 1 June cooling degree days 250 225  
Growing Degree Days 24 (Base 50)    
Moisture  
Dew Point 63 °F    
Average Humidity 72    
Maximum Humidity 100    
Minimum Humidity 44    
Precipitation  
Precipitation 0.00 in 0.10 in 0.78 in (2004)
Month to date precipitation 5.04 2.66  
Year to date precipitation 13.81 24.18  
Snow  
Snow 0.00 in - - ()
Month to date snowfall 0.0  
Since 1 June snowfall 0.0  
Since 1 July snowfall 0.0  
Snow Depth 0.00 in    
Sea Level Pressure  
Sea Level Pressure 30.17 in    
Wind  
Wind Speed 3 mph (East)    
Max Wind Speed 10 mph    
Max Gust Speed 13 mph    
Visibility 5 miles    
Events      
T = Trace of Precipitation, MM = Missing Value Source: NWS Daily Summary

Daily Weather History Graph

Daily Weather History Graph

Search for Another Location

Airport or City:

Trip Planner

Search our weather history database for the weather conditions in past years. The results will help you decide how hot, cold, wet, or windy it might be!

Date:

Astronomy

Jun. 22, 2013 Rise Set
Actual Time 6:29 AM EDT 8:51 PM EDT
Civil Twilight 6:00 AM EDT 9:20 PM EDT
Nautical Twilight 5:25 AM EDT 9:55 PM EDT
Astronomical Twilight 4:46 AM EDT 10:34 PM EDT
Moon 8:08 PM EDT (6/22) 5:38 AM EDT (6/22)
Length of Visible Light 15h 19m
Length of Day
14h 21m
Waxing Gibbous, 99% of the Moon is Illuminated
Jun 22
Waxing Gibbous
Jun 23
Full
Jun 30
Last Quarter
Jul 8
New
Jul 15
First Quarter

Hourly Weather History & Observations

Time (EDT) Temp. Heat Index Dew Point Humidity Pressure Visibility Wind Dir Wind Speed Gust Speed Precip Events Conditions
12:53 AM 66.9 °F - 64.9 °F 93% 30.18 in 4.0 mi Calm Calm - N/A   Clear
1:53 AM 66.0 °F - 64.0 °F 93% 30.17 in 4.0 mi Calm Calm - N/A   Clear
2:53 AM 64.9 °F - 64.0 °F 97% 30.17 in 4.0 mi Calm Calm - N/A   Clear
3:53 AM 64.0 °F - 63.0 °F 96% 30.16 in 4.0 mi Calm Calm - N/A   Clear
4:53 AM 63.0 °F - 62.1 °F 97% 30.16 in 4.0 mi Calm Calm - N/A   Clear
5:53 AM 63.0 °F - 62.1 °F 97% 30.17 in 4.0 mi Calm Calm - N/A   Clear
6:36 AM 62.6 °F - 60.8 °F 94% 30.19 in 2.5 mi Calm Calm - N/A   Clear
6:53 AM 62.1 °F - 61.0 °F 96% 30.18 in 2.5 mi Calm Calm - N/A   Clear
7:11 AM 62.6 °F - 62.6 °F 100% 30.20 in 3.0 mi Calm Calm - N/A   Clear
7:53 AM 69.1 °F - 64.0 °F 84% 30.19 in 5.0 mi Variable 3.5 mph - N/A   Haze
8:53 AM 73.0 °F - 64.0 °F 73% 30.20 in 6.0 mi East 5.8 mph - N/A   Haze
9:53 AM 75.9 °F - 62.1 °F 62% 30.21 in 7.0 mi SE 4.6 mph - N/A   Clear
10:53 AM 79.0 °F - 60.1 °F 52% 30.22 in 7.0 mi Variable 5.8 mph - N/A   Clear
11:53 AM 81.0 °F 81.6 °F 60.1 °F 49% 30.22 in 7.0 mi ENE 5.8 mph - N/A   Clear
12:53 PM 82.9 °F 83.2 °F 60.1 °F 46% 30.21 in 7.0 mi ENE 4.6 mph - N/A   Clear
1:53 PM 82.9 °F 83.2 °F 60.1 °F 46% 30.20 in 7.0 mi Variable 4.6 mph - N/A   Scattered Clouds
2:53 PM 84.0 °F 84.4 °F 61.0 °F 46% 30.17 in 7.0 mi Variable 4.6 mph - N/A   Scattered Clouds
3:53 PM 84.0 °F 84.5 °F 62.1 °F 47% 30.15 in 7.0 mi East 5.8 mph - N/A   Mostly Cloudy
4:53 PM 84.9 °F 85.9 °F 63.0 °F 48% 30.13 in 7.0 mi Variable 5.8 mph - N/A   Clear
5:53 PM 86.0 °F 86.8 °F 63.0 °F 46% 30.12 in 8.0 mi Variable 3.5 mph - N/A   Scattered Clouds
6:53 PM 84.0 °F 85.4 °F 64.0 °F 51% 30.09 in 7.0 mi East 5.8 mph - N/A   Scattered Clouds
7:53 PM 82.9 °F 84.4 °F 64.0 °F 53% 30.09 in 6.0 mi East 4.6 mph - N/A   Haze
8:53 PM 73.9 °F - 69.1 °F 85% 30.12 in 5.0 mi SE 3.5 mph - N/A   Haze
9:53 PM 71.1 °F - 69.1 °F 93% 30.12 in 5.0 mi Calm Calm - N/A   Clear
10:53 PM 70.0 °F - 68.0 °F 93% 30.14 in 5.0 mi Calm Calm - N/A   Clear
11:53 PM 71.1 °F - 68.0 °F 90% 30.16 in 6.0 mi Calm Calm - N/A   Clear